contact:dominique.lefevre@mio.osupytheas.fr, maurice.libes@osupytheas.fr, didier.mallarino@osupytheas.fr
Project:EMSO http://www.emso-fr.org/EMSO-France
Depth: 2436.0 m
Title:EMSO Ligure Ouest : Data MII capteur AQUADOPP
Date,Latitude,Longitude,X_East,Y_North,Z_Up,Amplitude_X,Amplitude_Y,Amplitude_Z,Batterie,SoundSpeed,Heading,Pitch,Roll,Pressure,TIS,Speed,Direction
, degrees North, degrees East, m.s-1, m.s-1,m.s-1, 1, 1, 1, Volt, m.s-1, degree, degree, degree, dbar, degree_C, m.s-1, degree
2020-11-15T00:04:03,42.805,6.029,-0.04,0.05,0.003,106.0,112.0,103.0,13.4,1505.3,326.9,-0.7,1.8,2470.348,13.31,0.064,321.3
2020-11-15T00:07:03,42.805,6.029,-0.016,0.038,0.0,106.0,115.0,103.0,13.4,1505.3,323.0,-0.7,1.8,2470.314,13.31,0.041,337.2
2020-11-15T00:10:03,42.805,6.029,-0.005,0.037,0.021,104.0,116.0,103.0,13.4,1505.3,328.3,-0.7,1.8,2470.367,13.32,0.037,352.3
2020-11-15T00:13:03,42.805,6.029,-0.046,0.045,0.019,105.0,112.0,103.0,13.4,1505.3,324.1,-0.7,1.8,2470.348,13.32,0.064,314.4
2020-11-15T00:16:03,42.805,6.029,-0.032,0.042,0.007,105.0,117.0,103.0,13.3,1505.3,325.5,-0.7,1.8,2470.329,13.32,0.052,322.7
2020-11-15T00:19:03,42.805,6.029,-0.054,0.057,-0.009,105.0,121.0,103.0,13.4,1505.3,323.3,-0.7,1.8,2470.317,13.32,0.078,316.5
2020-11-15T00:22:03,42.805,6.029,-0.04,0.05,0.001,104.0,118.0,104.0,13.4,1505.3,326.8,-0.7,1.8,2470.304,13.32,0.064,321.3
2020-11-15T00:25:03,42.805,6.029,-0.038,0.037,0.021,106.0,118.0,103.0,13.4,1505.3,325.0,-0.7,1.8,2470.315,13.32,0.053,314.2
2020-11-15T00:28:03,42.805,6.029,-0.057,0.036,-0.007,105.0,117.0,101.0,13.3,1505.3,327.2,-0.7,1.8,2470.302,13.32,0.067,302.3
2020-11-15T00:31:03,42.805,6.029,-0.056,0.064,0.001,105.0,120.0,103.0,13.4,1505.3,324.7,-0.7,1.8,2470.282,13.32,0.085,318.8
2020-11-15T00:34:03,42.805,6.029,-0.022,0.052,0.025,105.0,122.0,102.0,13.3,1505.3,327.2,-0.7,1.8,2470.286,13.32,0.056,337.1
2020-11-15T00:37:03,42.805,6.029,-0.06,0.046,-0.034,104.0,120.0,102.0,13.4,1505.3,327.4,-0.7,1.8,2470.283,13.32,0.075,307.5
2020-11-15T00:40:03,42.805,6.029,-0.027,0.028,0.014,106.0,115.0,102.0,13.4,1505.3,325.9,-0.7,1.8,2470.281,13.32,0.038,316.0
2020-11-15T00:43:03,42.805,6.029,-0.017,0.041,0.0,104.0,118.0,103.0,13.4,1505.3,325.7,-0.7,1.8,2470.313,13.32,0.044,337.5
2020-11-15T00:46:03,42.805,6.029,-0.049,0.039,-0.022,105.0,116.0,101.0,13.3,1505.3,324.4,-0.7,1.8,2470.3,13.32,0.062,308.5
2020-11-15T00:49:03,42.805,6.029,-0.031,0.031,-0.004,105.0,116.0,102.0,13.3,1505.3,325.5,-0.7,1.8,2470.32,13.33,0.043,315.0
2020-11-15T00:52:03,42.805,6.029,-0.034,0.036,0.019,105.0,121.0,102.0,13.4,1505.3,326.1,-0.7,1.8,2470.259,13.33,0.049,316.6
2020-11-15T00:55:03,42.805,6.029,-0.032,0.019,0.018,105.0,113.0,101.0,13.4,1505.3,326.1,-0.7,1.8,2470.254,13.33,0.037,300.7
2020-11-15T00:58:03,42.805,6.029,-0.051,0.028,-0.011,104.0,119.0,102.0,13.4,1505.3,323.1,-0.7,1.8,2470.283,13.33,0.058,298.8
2020-11-15T01:04:03,42.805,6.029,0.0,0.027,-0.008,105.0,119.0,103.0,13.4,1505.3,326.1,-0.8,1.9,2470.327,13.31,0.026,0.0
2020-11-15T01:07:03,42.805,6.029,-0.055,0.052,0.004,106.0,116.0,104.0,13.4,1505.3,327.0,-0.7,1.8,2470.305,13.31,0.075,313.4
2020-11-15T01:10:03,42.805,6.029,-0.033,0.042,-0.009,105.0,118.0,101.0,13.3,1505.3,323.7,-0.7,1.8,2470.295,13.32,0.053,321.8
2020-11-15T01:13:03,42.805,6.029,-0.033,0.033,-0.002,105.0,111.0,102.0,13.4,1505.3,325.1,-0.7,1.8,2470.282,13.32,0.046,315.0
2020-11-15T01:16:03,42.805,6.029,-0.037,0.035,-0.012,104.0,113.0,102.0,13.3,1505.3,325.3,-0.7,1.8,2470.28,13.32,0.05,313.4
2020-11-15T01:19:03,42.805,6.029,-0.023,0.047,-0.004,105.0,118.0,102.0,13.3,1505.3,326.1,-0.7,1.8,2470.267,13.32,0.052,333.9
2020-11-15T01:22:02,42.805,6.029,-0.024,0.039,-0.014,105.0,115.0,101.0,13.3,1505.3,325.0,-0.7,1.8,2470.331,13.32,0.045,328.4
2020-11-15T01:25:03,42.805,6.029,-0.011,0.032,0.026,102.0,116.0,101.0,13.4,1505.3,324.5,-0.7,1.9,2470.301,13.32,0.033,341.0
2020-11-15T01:28:03,42.805,6.029,-0.023,0.032,0.032,106.0,112.0,101.0,13.4,1505.3,325.1,-0.7,1.8,2470.297,13.32,0.039,324.3
2020-11-15T01:31:03,42.805,6.029,-0.023,0.013,0.0,104.0,115.0,102.0,13.4,1505.3,324.6,-0.7,1.8,2470.29,13.33,0.026,299.5
2020-11-15T01:34:03,42.805,6.029,-0.037,0.034,-0.032,105.0,117.0,100.0,13.3,1505.3,326.3,-0.7,1.8,2470.3,13.33,0.05,312.6
2020-11-15T01:37:03,42.805,6.029,-0.019,0.047,0.007,105.0,114.0,102.0,13.4,1505.3,324.7,-0.7,1.8,2470.271,13.33,0.05,338.0
2020-11-15T01:40:03,42.805,6.029,-0.024,0.037,-0.019,105.0,109.0,102.0,13.3,1505.3,325.7,-0.7,1.8,2470.282,13.33,0.044,327.0
2020-11-15T01:43:03,42.805,6.029,-0.014,0.04,-0.002,105.0,113.0,100.0,13.4,1505.3,324.0,-0.7,1.8,2470.254,13.33,0.042,340.7
2020-11-15T01:46:03,42.805,6.029,-0.016,0.044,0.015,104.0,119.0,102.0,13.4,1505.3,324.4,-0.7,1.8,2470.289,13.33,0.046,340.0
2020-11-15T01:49:03,42.805,6.029,-0.013,0.033,0.008,105.0,115.0,102.0,13.4,1505.3,326.3,-0.7,1.8,2470.292,13.33,0.035,338.5
2020-11-15T01:52:03,42.805,6.029,0.005,0.043,0.014,104.0,120.0,102.0,13.4,1505.3,323.1,-0.7,1.8,2470.282,13.32,0.043,6.6
2020-11-15T01:55:03,42.805,6.029,-0.045,0.049,-0.009,105.0,114.0,102.0,13.3,1505.3,323.7,-0.7,1.8,2470.298,13.33,0.066,317.4
2020-11-15T01:58:03,42.805,6.029,-0.031,0.025,0.002,103.0,117.0,102.0,13.4,1505.3,325.7,-0.7,1.8,2470.288,13.33,0.039,308.9
2020-11-15T02:04:03,42.805,6.029,-0.014,0.03,-0.006,103.0,120.0,102.0,13.4,1505.3,325.5,-0.7,1.8,2470.332,13.31,0.033,335.0
2020-11-15T02:07:03,42.805,6.029,-0.033,0.031,-0.021,104.0,117.0,103.0,13.4,1505.3,327.6,-0.7,1.8,2470.297,13.31,0.045,313.2
2020-11-15T02:10:03,42.805,6.029,-0.008,0.027,0.021,103.0,114.0,103.0,13.3,1505.3,326.2,-0.7,1.9,2470.322,13.32,0.028,343.5
2020-11-15T02:13:03,42.805,6.029,-0.039,0.031,-0.004,105.0,114.0,101.0,13.4,1505.3,325.0,-0.7,1.8,2470.353,13.32,0.049,308.5
2020-11-15T02:16:03,42.805,6.029,-0.025,0.037,0.013,103.0,113.0,102.0,13.4,1505.3,325.7,-0.7,1.8,2470.354,13.32,0.044,326.0
2020-11-15T02:19:03,42.805,6.029,-0.013,0.015,0.0,104.0,115.0,102.0,13.4,1505.3,327.7,-0.7,1.8,2470.312,13.32,0.019,319.1
2020-11-15T02:22:03,42.805,6.029,-0.025,0.032,-0.005,104.0,117.0,102.0,13.3,1505.3,326.4,-0.7,1.8,2470.301,13.33,0.04,322.0
2020-11-15T02:25:03,42.805,6.029,-0.041,0.022,0.007,105.0,117.0,102.0,13.4,1505.3,324.4,-0.7,1.9,2470.302,13.33,0.046,298.2
2020-11-15T02:28:03,42.805,6.029,-0.007,0.04,0.01,105.0,116.0,102.0,13.4,1505.3,325.7,-0.7,1.9,2470.312,13.33,0.04,350.1
2020-11-15T02:31:03,42.805,6.029,-0.033,0.026,0.027,105.0,114.0,101.0,13.3,1505.3,324.2,-0.7,1.8,2470.317,13.33,0.042,308.2
2020-11-15T02:34:03,42.805,6.029,-0.036,0.011,0.001,105.0,115.0,103.0,13.4,1505.3,323.0,-0.7,1.8,2470.312,13.33,0.037,287.0
2020-11-15T02:37:03,42.805,6.029,-0.039,0.046,-0.023,106.0,117.0,102.0,13.4,1505.3,322.8,-0.7,1.8,2470.3,13.33,0.06,319.7
2020-11-15T02:40:03,42.805,6.029,-0.014,0.007,0.012,105.0,117.0,102.0,13.4,1505.3,324.6,-0.7,1.8,2470.324,13.33,0.015,296.6
2020-11-15T02:43:03,42.805,6.029,-0.023,0.042,-0.013,105.0,118.0,102.0,13.4,1505.3,325.9,-0.7,1.8,2470.344,13.33,0.047,331.3
2020-11-15T02:46:03,42.805,6.029,-0.002,0.025,0.029,104.0,114.0,103.0,13.4,1505.3,324.7,-0.7,1.8,2470.317,13.33,0.025,355.4
2020-11-15T02:49:03,42.805,6.029,-0.034,0.037,-0.035,105.0,116.0,103.0,13.4,1505.3,325.7,-0.7,1.9,2470.31,13.33,0.05,317.4
2020-11-15T02:52:03,42.805,6.029,-0.026,0.035,0.018,105.0,119.0,102.0,13.4,1505.3,322.8,-0.7,1.8,2470.346,13.33,0.043,323.4
2020-11-15T02:55:03,42.805,6.029,-0.033,0.05,0.019,105.0,119.0,103.0,13.4,1505.3,328.2,-0.7,1.8,2470.361,13.33,0.059,326.6
2020-11-15T02:58:03,42.805,6.029,-0.042,0.021,0.019,104.0,118.0,102.0,13.3,1505.3,325.5,-0.7,1.9,2470.323,13.33,0.046,296.6
2020-11-15T03:04:03,42.805,6.029,-0.011,0.033,0.014,106.0,116.0,104.0,13.4,1505.3,322.7,-0.7,1.8,2470.379,13.31,0.034,341.6
2020-11-15T03:07:03,42.805,6.029,-0.021,0.029,0.012,105.0,118.0,102.0,13.4,1505.3,328.2,-0.7,1.8,2470.368,13.31,0.035,324.1
2020-11-15T03:10:03,42.805,6.029,-0.048,0.031,-0.045,105.0,118.0,102.0,13.4,1505.3,325.1,-0.7,1.8,2470.378,13.32,0.057,302.9
2020-11-15T03:13:03,42.805,6.029,-0.004,0.029,0.041,105.0,117.0,102.0,13.4,1505.3,326.8,-0.7,1.8,2470.359,13.32,0.029,352.2
2020-11-15T03:16:03,42.805,6.029,-0.021,0.033,0.022,106.0,114.0,102.0,13.4,1505.3,323.9,-0.7,1.8,2470.341,13.32,0.039,327.5
2020-11-15T03:19:03,42.805,6.029,-0.034,0.05,0.009,106.0,115.0,102.0,13.4,1505.3,326.9,-0.7,1.8,2470.372,13.32,0.06,325.8
2020-11-15T03:22:03,42.805,6.029,-0.056,0.04,-0.018,105.0,117.0,102.0,13.3,1505.3,325.1,-0.7,1.8,2470.385,13.32,0.068,305.5
2020-11-15T03:25:03,42.805,6.029,-0.026,0.024,-0.012,107.0,118.0,102.0,13.4,1505.3,325.1,-0.7,1.8,2470.363,13.32,0.035,312.7
2020-11-15T03:28:03,42.805,6.029,0.004,0.042,0.014,104.0,113.0,102.0,13.4,1505.3,326.7,-0.7,1.8,2470.357,13.32,0.042,5.4
2020-11-15T03:31:03,42.805,6.029,-0.019,0.026,0.037,105.0,116.0,101.0,13.4,1505.3,327.1,-0.7,1.8,2470.38,13.33,0.032,323.8
2020-11-15T03:34:03,42.805,6.029,-0.01,0.035,0.032,104.0,113.0,100.0,13.4,1505.3,324.7,-0.7,1.8,2470.382,13.32,0.036,344.1
2020-11-15T03:37:03,42.805,6.029,-0.026,0.038,-0.003,103.0,116.0,103.0,13.3,1505.3,326.1,-0.7,1.8,2470.384,13.33,0.046,325.6
2020-11-15T03:40:03,42.805,6.029,-0.03,0.042,0.01,105.0,114.0,100.0,13.3,1505.3,326.3,-0.7,1.8,2470.373,13.33,0.051,324.5
2020-11-15T03:43:03,42.805,6.029,-0.044,0.038,-0.004,105.0,114.0,101.0,13.4,1505.3,325.1,-0.7,1.8,2470.406,13.33,0.058,310.8
2020-11-15T03:46:03,42.805,6.029,-0.019,0.054,0.015,104.0,121.0,102.0,13.4,1505.3,326.1,-0.7,1.8,2470.404,13.32,0.057,340.6
2020-11-15T03:49:03,42.805,6.029,-0.037,0.042,-0.026,103.0,119.0,101.0,13.3,1505.3,324.7,-0.7,1.8,2470.427,13.32,0.055,318.6
2020-11-15T03:52:03,42.805,6.029,-0.031,0.02,0.002,103.0,114.0,101.0,13.4,1505.3,325.1,-0.7,1.8,2470.414,13.32,0.036,302.8
2020-11-15T03:55:03,42.805,6.029,-0.05,0.04,0.011,104.0,113.0,101.0,13.3,1505.3,327.3,-0.7,1.8,2470.436,13.32,0.064,308.7
2020-11-15T03:58:03,42.805,6.029,-0.017,0.03,0.019,104.0,115.0,100.0,13.3,1505.3,324.1,-0.7,1.9,2470.409,13.32,0.034,330.5
2020-11-15T04:04:03,42.805,6.029,-0.023,0.035,0.028,103.0,116.0,101.0,13.4,1505.3,325.3,-0.7,1.8,2470.445,13.31,0.041,326.7
2020-11-15T04:07:03,42.805,6.029,-0.029,0.018,0.01,103.0,114.0,100.0,13.3,1505.3,327.8,-0.7,1.8,2470.493,13.31,0.034,301.8
2020-11-15T04:10:03,42.805,6.029,-0.004,0.033,-0.011,104.0,117.0,102.0,13.4,1505.3,325.4,-0.7,1.8,2470.457,13.32,0.033,353.1
2020-11-15T04:13:03,42.805,6.029,0.004,0.019,0.005,104.0,109.0,100.0,13.4,1505.3,325.9,-0.7,1.8,2470.441,13.32,0.019,11.9
2020-11-15T04:16:03,42.805,6.029,-0.007,0.022,0.006,103.0,111.0,101.0,13.4,1505.3,327.0,-0.7,1.8,2470.498,13.32,0.023,342.4
2020-11-15T04:19:03,42.805,6.029,-0.014,0.04,-0.002,102.0,117.0,102.0,13.3,1505.3,323.3,-0.7,1.8,2470.461,13.32,0.042,340.7
2020-11-15T04:22:03,42.805,6.029,-0.051,0.028,-0.025,104.0,114.0,101.0,13.3,1505.3,326.5,-0.7,1.8,2470.481,13.32,0.058,298.8
2020-11-15T04:25:03,42.805,6.029,-0.019,0.06,-0.002,104.0,116.0,102.0,13.4,1505.3,326.6,-0.7,1.8,2470.467,13.32,0.062,342.4
2020-11-15T04:28:03,42.805,6.029,-0.015,0.023,0.03,103.0,113.0,102.0,13.4,1505.3,326.5,-0.7,1.8,2470.473,13.32,0.027,326.9
2020-11-15T04:31:03,42.805,6.029,-0.016,0.039,0.028,103.0,117.0,102.0,13.4,1505.3,325.8,-0.7,1.8,2470.467,13.32,0.042,337.7
2020-11-15T04:34:03,42.805,6.029,-0.05,0.046,0.018,104.0,114.0,101.0,13.4,1505.3,326.3,-0.7,1.8,2470.46,13.32,0.067,312.6
2020-11-15T04:37:03,42.805,6.029,-0.051,0.025,-0.028,104.0,116.0,101.0,13.4,1505.3,325.6,-0.7,1.8,2470.481,13.33,0.056,296.1
2020-11-15T04:40:03,42.805,6.029,-0.033,0.024,0.019,104.0,114.0,100.0,13.4,1505.3,325.3,-0.7,1.8,2470.505,13.33,0.04,306.0
2020-11-15T04:43:03,42.805,6.029,-0.015,0.027,0.0,103.0,115.0,102.0,13.4,1505.3,325.9,-0.7,1.8,2470.508,13.33,0.03,330.9
2020-11-15T04:46:03,42.805,6.029,-0.038,0.042,0.001,104.0,116.0,101.0,13.4,1505.3,325.3,-0.7,1.8,2470.482,13.33,0.056,317.9
2020-11-15T04:49:03,42.805,6.029,-0.039,0.047,0.002,102.0,120.0,101.0,13.4,1505.3,327.1,-0.7,1.9,2470.485,13.32,0.061,320.3
2020-11-15T04:52:03,42.805,6.029,-0.027,0.018,0.028,104.0,115.0,101.0,13.4,1505.3,326.1,-0.7,1.8,2470.467,13.32,0.032,303.7
2020-11-15T04:55:03,42.805,6.029,-0.031,0.008,-0.014,104.0,116.0,101.0,13.3,1505.3,324.7,-0.7,1.8,2470.48,13.33,0.032,284.5
2020-11-15T04:58:03,42.805,6.029,-0.021,0.034,0.012,104.0,117.0,102.0,13.4,1505.3,327.0,-0.7,1.8,2470.488,13.32,0.039,328.3
2020-11-15T05:04:03,42.805,6.029,-0.055,0.036,-0.012,104.0,116.0,100.0,13.3,1505.3,326.9,-0.7,1.8,2470.539,13.31,0.065,303.2
2020-11-15T05:10:03,42.805,6.029,-0.032,0.019,0.011,103.0,110.0,102.0,13.4,1505.2,325.2,-0.7,1.8,2470.561,13.3,0.037,300.7
2020-11-15T05:13:03,42.805,6.029,-0.022,0.021,0.001,103.0,111.0,101.0,13.4,1505.3,326.3,-0.7,1.8,2470.594,13.31,0.03,313.7
2020-11-15T05:16:03,42.805,6.029,-0.038,0.016,-0.005,103.0,111.0,103.0,13.3,1505.3,326.3,-0.7,1.8,2470.532,13.31,0.041,292.8
2020-11-15T05:19:03,42.805,6.029,-0.048,0.018,0.0,104.0,115.0,101.0,13.4,1505.3,326.9,-0.7,1.8,2470.55,13.32,0.051,290.6
2020-11-15T05:22:03,42.805,6.029,-0.007,0.048,0.015,103.0,116.0,101.0,13.4,1505.3,326.8,-0.7,1.8,2470.555,13.32,0.048,351.7
2020-11-15T05:25:03,42.805,6.029,-0.033,0.046,0.004,104.0,117.0,100.0,13.3,1505.3,325.2,-0.7,1.8,2470.573,13.32,0.056,324.3
2020-11-15T05:28:03,42.805,6.029,-0.03,0.035,-0.015,103.0,113.0,100.0,13.3,1505.3,325.7,-0.7,1.8,2470.596,13.32,0.046,319.4
2020-11-15T05:31:03,42.805,6.029,-0.035,0.014,-0.008,106.0,118.0,101.0,13.4,1505.3,323.8,-0.7,1.8,2470.542,13.32,0.037,291.8
2020-11-15T05:34:03,42.805,6.029,-0.027,0.033,-0.004,104.0,111.0,103.0,13.3,1505.3,327.1,-0.7,1.8,2470.531,13.32,0.042,320.7
2020-11-15T05:37:03,42.805,6.029,-0.022,0.043,0.014,105.0,111.0,100.0,13.4,1505.3,324.5,-0.7,1.8,2470.553,13.32,0.048,332.9
2020-11-15T05:40:03,42.805,6.029,-0.038,0.026,0.018,104.0,114.0,101.0,13.4,1505.3,323.0,-0.7,1.8,2470.554,13.32,0.046,304.4
2020-11-15T05:43:03,42.805,6.029,-0.021,0.033,0.023,103.0,108.0,101.0,13.4,1505.3,324.4,-0.7,1.8,2470.551,13.32,0.039,327.5
2020-11-15T05:46:03,42.805,6.029,-0.012,0.045,-0.01,104.0,118.0,101.0,13.3,1505.3,327.6,-0.7,1.8,2470.51,13.32,0.046,345.1
2020-11-15T05:49:03,42.805,6.029,-0.032,0.023,0.017,104.0,113.0,102.0,13.3,1505.3,325.0,-0.7,1.9,2470.548,13.32,0.039,305.7
2020-11-15T05:52:03,42.805,6.029,-0.009,0.037,0.017,103.0,119.0,102.0,13.3,1505.3,327.4,-0.7,1.8,2470.553,13.32,0.038,346.3
2020-11-15T05:55:03,42.805,6.029,-0.047,0.022,-0.021,103.0,118.0,101.0,13.3,1505.3,323.6,-0.7,1.8,2470.524,13.32,0.051,295.1
2020-11-15T05:58:03,42.805,6.029,-0.035,0.035,-0.013,104.0,115.0,102.0,13.3,1505.3,325.2,-0.7,1.8,2470.537,13.32,0.049,315.0
2020-11-15T06:04:03,42.805,6.029,-0.011,0.02,0.011,104.0,113.0,101.0,13.3,1505.2,326.9,-0.7,1.8,2470.579,13.3,0.022,331.2
2020-11-15T06:07:03,42.805,6.029,-0.02,0.023,0.022,105.0,115.0,102.0,13.4,1505.3,323.9,-0.8,1.8,2470.578,13.31,0.03,319.0
2020-11-15T06:10:03,42.805,6.029,-0.023,0.008,0.003,104.0,118.0,102.0,13.4,1505.3,325.4,-0.7,1.8,2470.541,13.32,0.024,289.2
2020-11-15T06:13:03,42.805,6.029,-0.017,0.051,0.015,104.0,118.0,102.0,13.3,1505.3,324.9,-0.7,1.8,2470.551,13.32,0.053,341.6
2020-11-15T06:16:03,42.805,6.029,-0.027,0.021,-0.002,105.0,117.0,102.0,13.3,1505.3,325.2,-0.7,1.8,2470.551,13.32,0.034,307.9
2020-11-15T06:19:03,42.805,6.029,-0.047,0.035,-0.055,105.0,119.0,101.0,13.4,1505.3,326.6,-0.7,1.9,2470.531,13.32,0.058,306.7
2020-11-15T06:22:03,42.805,6.029,-0.008,0.028,-0.011,106.0,112.0,102.0,13.3,1505.3,326.1,-0.7,1.8,2470.569,13.32,0.029,344.1
2020-11-15T06:25:03,42.805,6.029,-0.039,-0.003,0.015,106.0,120.0,101.0,13.3,1505.3,324.7,-0.7,1.9,2470.539,13.32,0.039,265.6
2020-11-15T06:28:03,42.805,6.029,-0.005,0.027,0.011,104.0,117.0,102.0,13.4,1505.3,324.2,-0.7,1.8,2470.556,13.32,0.027,349.5
2020-11-15T06:31:03,42.805,6.029,-0.021,0.031,0.011,104.0,114.0,102.0,13.4,1505.3,323.0,-0.7,1.8,2470.552,13.32,0.037,325.9
2020-11-15T06:34:03,42.805,6.029,-0.067,0.036,-0.036,105.0,117.0,102.0,13.3,1505.3,326.3,-0.7,1.8,2470.547,13.32,0.076,298.3
2020-11-15T06:37:03,42.805,6.029,-0.039,0.036,0.018,105.0,115.0,101.0,13.4,1505.3,325.0,-0.7,1.8,2470.527,13.32,0.053,312.7
2020-11-15T06:40:03,42.805,6.029,-0.021,0.035,0.006,105.0,112.0,102.0,13.4,1505.3,325.5,-0.7,1.8,2470.545,13.32,0.04,329.0
2020-11-15T06:43:03,42.805,6.029,-0.047,0.028,0.013,105.0,114.0,101.0,13.4,1505.3,325.1,-0.7,1.8,2470.565,13.32,0.054,300.8
2020-11-15T06:46:03,42.805,6.029,-0.029,0.044,-0.018,103.0,113.0,103.0,13.4,1505.3,326.3,-0.7,1.8,2470.545,13.32,0.052,326.6
2020-11-15T06:49:03,42.805,6.029,-0.027,0.056,-0.009,105.0,116.0,103.0,13.3,1505.3,325.8,-0.7,1.8,2470.568,13.32,0.062,334.3
2020-11-15T06:52:03,42.805,6.029,-0.035,0.03,0.009,105.0,115.0,102.0,13.4,1505.3,326.2,-0.7,1.8,2470.53,13.33,0.046,310.6
2020-11-15T06:55:03,42.805,6.029,-0.023,0.036,0.01,104.0,118.0,101.0,13.4,1505.3,327.2,-0.7,1.9,2470.522,13.32,0.042,327.4
2020-11-15T06:58:03,42.805,6.029,-0.013,0.044,0.037,105.0,111.0,103.0,13.4,1505.3,324.2,-0.7,1.8,2470.597,13.32,0.045,343.5
2020-11-15T07:04:03,42.805,6.029,-0.028,0.044,0.015,105.0,116.0,102.0,13.4,1505.2,326.6,-0.8,1.8,2470.572,13.3,0.052,327.5
2020-11-15T07:07:03,42.805,6.029,-0.023,0.039,0.011,105.0,114.0,102.0,13.4,1505.3,327.7,-0.7,1.8,2470.561,13.31,0.045,329.5
2020-11-15T07:10:03,42.805,6.029,-0.021,0.027,0.009,106.0,110.0,103.0,13.3,1505.3,326.9,-0.7,1.8,2470.587,13.32,0.034,322.1
2020-11-15T07:13:03,42.805,6.029,-0.041,0.027,-0.03,104.0,115.0,102.0,13.4,1505.3,327.7,-0.7,1.8,2470.557,13.32,0.049,303.4
2020-11-15T07:16:03,42.805,6.029,-0.027,0.03,-0.003,104.0,115.0,102.0,13.3,1505.3,327.5,-0.7,1.8,2470.598,13.32,0.04,318.0
2020-11-15T07:19:03,42.805,6.029,-0.017,0.042,0.039,105.0,119.0,101.0,13.4,1505.3,327.2,-0.7,1.8,2470.601,13.32,0.045,338.0
2020-11-15T07:22:03,42.805,6.029,-0.028,0.043,0.001,105.0,118.0,101.0,13.4,1505.3,325.7,-0.7,1.8,2470.591,13.32,0.051,326.9
2020-11-15T07:25:03,42.805,6.029,-0.05,0.043,0.002,105.0,116.0,101.0,13.4,1505.3,323.2,-0.7,1.8,2470.581,13.32,0.065,310.7
2020-11-15T07:28:03,42.805,6.029,-0.013,0.042,0.0,105.0,114.0,102.0,13.4,1505.3,324.7,-0.7,1.8,2470.595,13.32,0.043,342.8
2020-11-15T07:31:03,42.805,6.029,-0.035,0.055,0.008,103.0,119.0,102.0,13.4,1505.3,324.3,-0.7,1.8,2470.558,13.32,0.065,327.5
2020-11-15T07:34:03,42.805,6.029,0.001,0.045,0.009,105.0,115.0,102.0,13.3,1505.3,326.4,-0.7,1.8,2470.53,13.32,0.045,1.3
2020-11-15T07:37:03,42.805,6.029,-0.034,0.028,0.009,105.0,118.0,101.0,13.4,1505.3,326.2,-0.7,1.8,2470.555,13.32,0.044,309.5
2020-11-15T07:40:03,42.805,6.029,-0.003,0.034,0.017,104.0,115.0,101.0,13.4,1505.3,326.9,-0.7,1.8,2470.56,13.32,0.034,355.0
2020-11-15T07:43:03,42.805,6.029,-0.017,0.037,0.021,106.0,120.0,103.0,13.3,1505.3,325.4,-0.7,1.8,2470.554,13.32,0.04,335.3
2020-11-15T07:46:03,42.805,6.029,-0.053,0.053,0.01,106.0,119.0,102.0,13.4,1505.3,326.3,-0.7,1.8,2470.564,13.32,0.074,315.0
2020-11-15T07:49:03,42.805,6.029,-0.025,0.04,-0.017,106.0,117.0,102.0,13.4,1505.3,324.0,-0.7,1.9,2470.532,13.32,0.047,328.0
2020-11-15T07:52:03,42.805,6.029,-0.036,0.039,-0.009,105.0,115.0,102.0,13.4,1505.3,326.3,-0.7,1.8,2470.564,13.32,0.053,317.3
2020-11-15T07:55:03,42.805,6.029,-0.034,0.032,0.013,105.0,118.0,101.0,13.3,1505.3,326.3,-0.7,1.8,2470.518,13.32,0.046,313.3
2020-11-15T07:58:03,42.805,6.029,-0.047,0.028,0.006,106.0,112.0,102.0,13.3,1505.3,323.2,-0.7,1.8,2470.537,13.32,0.054,300.8
2020-11-15T08:04:03,42.805,6.029,-0.004,0.037,0.002,105.0,119.0,102.0,13.4,1505.2,324.1,-0.7,1.8,2470.571,13.3,0.037,353.8
2020-11-15T08:07:03,42.805,6.029,-0.025,0.039,0.014,103.0,116.0,102.0,13.4,1505.3,326.2,-0.7,1.8,2470.585,13.31,0.046,327.3
2020-11-15T08:10:03,42.805,6.029,-0.037,0.042,-0.023,104.0,117.0,102.0,13.4,1505.3,325.0,-0.7,1.8,2470.567,13.32,0.055,318.6
2020-11-15T08:13:03,42.805,6.029,-0.038,0.012,-0.017,106.0,118.0,101.0,13.4,1505.3,326.3,-0.7,1.8,2470.576,13.32,0.039,287.5
2020-11-15T08:16:03,42.805,6.029,-0.018,0.028,-0.01,105.0,113.0,100.0,13.4,1505.3,325.0,-0.7,1.8,2470.542,13.32,0.033,327.3
2020-11-15T08:19:03,42.805,6.029,-0.05,0.027,-0.025,106.0,117.0,102.0,13.4,1505.3,324.0,-0.7,1.8,2470.521,13.32,0.056,298.4
2020-11-15T08:22:03,42.805,6.029,-0.029,0.049,0.0,104.0,118.0,102.0,13.4,1505.3,327.3,-0.7,1.8,2470.56,13.32,0.056,329.4
2020-11-15T08:25:03,42.805,6.029,-0.031,0.029,-0.016,104.0,116.0,102.0,13.4,1505.3,322.9,-0.7,1.8,2470.491,13.32,0.042,313.1
2020-11-15T08:28:03,42.805,6.029,-0.021,0.038,0.001,104.0,117.0,103.0,13.4,1505.3,323.0,-0.8,1.8,2470.542,13.32,0.043,331.1
2020-11-15T08:31:03,42.805,6.029,-0.005,0.036,0.015,105.0,118.0,102.0,13.3,1505.3,323.2,-0.7,1.8,2470.555,13.32,0.036,352.1
2020-11-15T08:34:03,42.805,6.029,-0.016,0.056,0.039,105.0,119.0,101.0,13.4,1505.3,323.0,-0.7,1.8,2470.54,13.32,0.058,344.1
2020-11-15T08:37:03,42.805,6.029,-0.027,0.02,0.004,105.0,119.0,102.0,13.3,1505.3,327.1,-0.7,1.8,2470.541,13.32,0.033,306.5
2020-11-15T08:40:03,42.805,6.029,-0.016,0.04,0.004,105.0,116.0,102.0,13.4,1505.3,324.3,-0.7,1.8,2470.553,13.33,0.043,338.2
2020-11-15T08:43:03,42.805,6.029,-0.039,0.005,-0.016,106.0,117.0,103.0,13.4,1505.3,324.0,-0.7,1.8,2470.533,13.33,0.039,277.3
2020-11-15T08:46:03,42.805,6.029,-0.027,0.033,0.012,106.0,117.0,103.0,13.3,1505.3,325.8,-0.7,1.8,2470.53,13.33,0.042,320.7
2020-11-15T08:49:03,42.805,6.029,-0.017,0.052,-0.014,105.0,115.0,102.0,13.3,1505.3,327.8,-0.7,1.8,2470.509,13.33,0.054,341.9
2020-11-15T08:52:03,42.805,6.029,-0.02,0.036,-0.022,105.0,116.0,102.0,13.3,1505.3,327.8,-0.7,1.8,2470.505,13.33,0.041,330.9
2020-11-15T08:55:03,42.805,6.029,-0.026,0.032,-0.006,106.0,114.0,102.0,13.4,1505.3,328.4,-0.7,1.8,2470.5,13.33,0.041,320.9
2020-11-15T08:58:03,42.805,6.029,-0.023,0.039,0.004,106.0,113.0,103.0,13.3,1505.3,327.8,-0.7,1.8,2470.545,13.33,0.045,329.5
2020-11-15T09:04:03,42.805,6.029,-0.018,0.036,0.026,104.0,116.0,101.0,13.3,1505.3,324.4,-0.7,1.8,2470.559,13.31,0.04,333.4
2020-11-15T09:07:03,42.805,6.029,-0.04,0.04,0.014,104.0,118.0,103.0,13.4,1505.3,326.3,-0.7,1.9,2470.497,13.31,0.056,315.0
2020-11-15T09:10:03,42.805,6.029,-0.027,0.041,0.015,106.0,121.0,102.0,13.4,1505.3,325.0,-0.7,1.8,2470.581,13.32,0.049,326.6
2020-11-15T09:13:03,42.805,6.029,-0.045,0.053,0.015,106.0,118.0,102.0,13.3,1505.3,323.9,-0.7,1.8,2470.527,13.32,0.069,319.7
2020-11-15T09:16:03,42.805,6.029,-0.016,0.023,0.021,104.0,119.0,103.0,13.3,1505.3,326.6,-0.7,1.9,2470.552,13.32,0.028,325.2
2020-11-15T09:19:03,42.805,6.029,-0.022,0.04,-0.003,105.0,116.0,103.0,13.3,1505.3,325.4,-0.7,1.8,2470.556,13.32,0.045,331.2
2020-11-15T09:22:03,42.805,6.029,-0.019,0.029,-0.015,106.0,116.0,102.0,13.4,1505.3,325.0,-0.7,1.8,2470.518,13.32,0.034,326.8
2020-11-15T09:25:03,42.805,6.029,-0.019,0.013,0.005,105.0,115.0,103.0,13.4,1505.3,326.7,-0.7,1.8,2470.494,13.32,0.023,304.4
2020-11-15T09:28:03,42.805,6.029,-0.025,0.022,0.0,104.0,114.0,102.0,13.4,1505.3,325.3,-0.7,1.8,2470.488,13.32,0.033,311.3
2020-11-15T09:31:03,42.805,6.029,-0.033,0.04,0.021,106.0,114.0,101.0,13.3,1505.3,326.0,-0.7,1.9,2470.49,13.32,0.051,320.5
2020-11-15T09:34:03,42.805,6.029,0.0,0.031,0.012,105.0,114.0,102.0,13.3,1505.3,324.8,-0.7,1.8,2470.51,13.32,0.03,0.0
2020-11-15T09:37:03,42.805,6.029,-0.002,0.032,0.017,103.0,114.0,102.0,13.3,1505.3,324.5,-0.7,1.8,2470.524,13.32,0.032,356.4
2020-11-15T09:40:03,42.805,6.029,-0.039,0.048,0.015,103.0,116.0,102.0,13.4,1505.3,326.8,-0.7,1.8,2470.526,13.32,0.061,320.9
2020-11-15T09:43:03,42.805,6.029,-0.04,0.038,0.028,104.0,115.0,103.0,13.3,1505.3,323.0,-0.7,1.8,2470.432,13.32,0.055,313.5
2020-11-15T09:46:03,42.805,6.029,-0.013,0.03,-0.021,104.0,112.0,101.0,13.3,1505.3,326.4,-0.7,1.8,2470.495,13.32,0.032,336.6
2020-11-15T09:49:03,42.805,6.029,-0.023,0.053,-0.026,105.0,118.0,101.0,13.3,1505.3,324.1,-0.7,1.8,2470.485,13.33,0.057,336.5
2020-11-15T09:52:03,42.805,6.029,-0.027,0.036,0.008,105.0,115.0,101.0,13.4,1505.3,325.5,-0.7,1.8,2470.447,13.32,0.045,323.1
2020-11-15T09:55:03,42.805,6.029,-0.029,0.022,-0.006,105.0,114.0,102.0,13.3,1505.3,327.5,-0.7,1.8,2470.467,13.32,0.036,307.2
2020-11-15T09:58:03,42.805,6.029,-0.022,0.049,0.014,105.0,115.0,103.0,13.3,1505.3,323.3,-0.7,1.8,2470.496,13.32,0.053,335.8
2020-11-15T10:04:03,42.805,6.029,-0.008,0.016,0.014,105.0,117.0,102.0,13.4,1505.3,328.5,-0.8,1.8,2470.545,13.31,0.017,333.4